Lid_Strength_Index
2 2 2 2 2 1 1 1 1 1 1 1 1 1 1 2 3 7 10 8 10 13 13 12 12 14 14 13 16 16 16 16 17 17 17 19 20 20 21 21 21 21 21 22 21 22 22 17 17 18 16 16 16 16
2 2 2 2 2 1 1 1 1 1 1 1 1 1 1 1 1 4 9 8 9 13 13 11 11 11 11 10 13 15 14 16 14 16 18 19 21 21 21 23 19 21 19 21 19 19 17 15 15 14 13 14 14 14
2 2 2 2 2 2 1 1 1 1 1 1 1 1 1 1 1 3 7 8 8 14 14 14 14 11 10 10 11 14 15 14 14 13 17 18 20 19 23 23 21 19 19 19 19 18 16 14 13 12 12 12 12 12
2 2 2 2 2 2 1 1 1 1 1 1 1 1 1 1 1 2 6 7 8 12 17 15 13 12 10 10 12 12 13 13 14 14 17 19 20 16 20 18 19 18 18 20 19 16 14 13 12 11 11 11 12 12
2 1 2 2 2 2 1 1 1 1 0 0 0 0 0 0 1 2 4 5 5 9 15 16 14 12 11 11 12 12 12 13 15 17 19 21 17 17 19 17 20 17 17 18 18 13 13 12 11 10 12 12 12 12
1 1 2 2 2 2 1 0 0 0 0 -0 0 0 -0 0 0 3 8 5 4 5 12 17 12 14 11 10 11 11 12 12 14 15 17 15 13 14 21 23 15 14 14 13 13 11 11 11 11 11 12 12 12 12
2 2 2 2 1 1 0 -0 -0 -0 -0 -0 -0 -0 -0 -0 2 6 8 6 3 4 9 16 18 13 11 12 13 12 11 12 12 14 17 13 13 13 19 20 13 13 12 12 11 11 13 12 11 11 10 10 12 13
2 2 2 2 1 0 -0 -0 -0 -0 -0 -0 -0 -0 0 1 1 5 3 2 2 6 8 12 19 14 10 12 13 11 13 14 14 13 12 15 12 12 18 14 13 12 12 12 11 10 9 10 11 11 12 14 15 14
1 2 2 1 0 0 -0 -0 -0 -0 -0 -0 -0 -0 2 5 7 6 1 1 3 6 10 11 16 18 11 11 11 12 9 13 10 13 14 12 14 16 14 13 13 12 12 11 12 12 12 12 10 12 14 17 15 14
0 1 1 0 -0 -0 -0 -0 -0 -0 -0 -0 1 6 8 5 2 2 5 7 7 8 8 12 22 18 12 14 14 14 13 14 14 14 11 12 16 12 12 12 11 10 10 11 15 15 19 17 13 13 14 14 13 15
-0 0 -0 -0 -0 -0 -0 -0 -0 -0 -0 4 7 8 6 1 5 8 10 12 10 12 9 14 17 16 14 17 17 11 13 12 15 16 15 17 19 12 10 10 10 9 10 11 9 10 13 13 13 14 16 17 18 19
0 -0 -0 -0 -0 -0 -0 -0 -0 2 5 5 5 3 4 7 10 12 12 12 14 15 16 13 16 15 16 13 13 11 13 13 20 17 16 22 16 13 13 10 9 11 13 14 16 13 17 17 19 19 19 21 23 23
-0 -0 -0 0 -0 -0 -0 -0 0 0 2 5 7 8 9 10 14 14 15 19 16 21 15 17 16 14 14 12 13 14 15 15 14 15 16 18 15 19 21 20 18 22 22 21 23 22 22 23 24 25 25 25 26 27
0 0 0 1 -0 -0 -0 -0 -0 2 5 9 10 13 14 14 15 14 20 21 19 19 15 18 13 14 16 15 13 17 16 16 18 18 21 21 25 26 25 25 27 24 26 24 25 25 25 25 27 27 27 27 26 28
2 2 1 1 1 1 0 -0 1 4 9 11 11 15 18 22 25 25 24 23 20 21 15 16 16 11 15 13 12 14 16 17 20 21 24 27 27 28 27 28 28 29 29 29 30 29 28 28 28 31 31 29 29 29
3 4 5 2 1 1 1 2 3 5 8 11 14 17 22 20 22 23 24 19 15 12 13 12 15 13 13 13 15 15 16 20 21 27 28 27 29 30 31 31 31 32 32 31 29 27 28 28 29 32 32 32 30 29
5 11 3 3 2 3 3 8 8 10 12 13 20 28 27 23 21 23 22 16 12 11 12 11 13 15 12 14 15 16 17 20 23 24 26 27 28 29 30 32 32 33 32 32 32 31 32 31 31 29 29 31 29 30
10 9 4 4 7 9 16 13 13 14 19 19 19 24 28 26 25 23 19 16 13 11 12 12 11 14 15 15 17 23 23 23 23 24 25 27 28 30 30 31 30 29 30 32 33 33 31 28 26 26 27 28 27 28
10 8 5 4 9 18 19 19 15 18 21 22 19 19 20 23 21 20 19 16 15 15 13 14 14 18 23 25 26 25 26 27 26 25 26 29 28 31 30 28 28 29 29 30 29 27 27 26 26 27 27 26 26 28
5 5 6 7 9 19 22 22 20 16 20 21 21 19 19 20 19 19 19 18 18 20 26 27 30 30 29 28 27 28 27 26 27 27 27 26 25 26 27 26 27 27 27 29 28 27 27 26 26 27 28 28 28 31
10 10 9 14 16 18 23 23 24 23 20 20 20 19 20 19 22 22 23 21 25 29 29 30 29 29 28 27 26 28 26 26 28 28 28 25 24 24 25 25 25 25 25 26 25 25 24 25 26 29 28 32 35 35
13 10 18 13 17 18 20 21 23 22 22 24 20 20 23 25 25 25 22 27 29 29 29 29 29 29 29 28 28 28 27 27 26 24 23 23 24 24 24 25 24 25 25 25 26 28 28 28 29 32 34 33 33 33
13 13 17 18 19 20 23 20 23 22 23 24 22 22 24 24 24 21 28 28 30 27 29 30 29 28 29 27 27 26 27 27 29 27 26 25 25 24 24 25 25 26 26 27 28 28 31 29 31 32 33 33 33 33
17 24 25 26 24 26 24 23 21 22 22 24 24 26 28 27 23 27 32 31 28 27 28 29 29 27 26 27 27 27 27 27 26 26 26 23 24 25 25 26 26 27 28 28 29 32 33 33 29 29 30 32 34 33
24 32 29 31 27 28 29 28 27 25 27 27 27 27 27 28 28 30 30 30 29 28 28 28 28 27 29 29 27 27 27 27 25 25 25 24 24 23 24 25 26 28 29 30 30 30 30 31 30 31 31 33 32 31
35 34 33 34 32 31 30 29 30 31 28 29 30 27 28 27 30 33 31 30 29 29 28 29 31 29 27 26 27 26 25 26 26 24 25 25 24 24 25 25 25 24 28 30 30 31 32 29 29 29 29 28 25 25
34 35 32 29 31 30 29 28 28 30 33 33 34 28 27 31 33 31 27 26 27 26 25 25 27 27 27 27 25 24 24 26 27 27 28 27 27 27 26 27 28 26 28 31 32 31 30 29 28 27 26 25 26 26
34 35 35 32 32 32 32 32 34 35 34 34 31 33 33 33 34 29 26 23 24 24 24 23 25 26 26 24 23 22 23 22 25 24 24 24 25 24 24 24 23 18 23 24 24 23 25 25 25 25 26 26 26 24
34 34 33 32 33 34 37 36 36 34 34 35 31 31 31 28 28 28 25 24 23 22 24 24 23 22 22 22 22 22 23 24 25 27 27 27 26 25 22 23 23 22 23 24 21 19 19 19 21 22 25 26 26 28
34 36 34 34 35 36 36 37 36 35 34 33 31 26 26 26 24 22 23 23 24 25 24 24 24 24 25 25 26 25 25 24 25 26 29 29 27 24 24 23 23 23 24 27 25 26 23 26 26 30 30 31 32 32
36 35 34 34 34 35 36 36 35 33 31 29 28 29 30 28 26 23 24 24 24 24 25 26 26 25 26 27 27 28 28 26 24 26 25 25 25 25 24 24 22 26 31 31 31 33 31 32 33 33 32 32 32 31
34 38 36 36 35 35 36 34 35 34 31 30 31 30 29 29 30 28 24 25 26 27 26 27 28 28 26 27 30 31 26 27 27 28 28 26 27 26 25 24 26 28 29 30 31 32 32 33 33 32 32 34 33 34
33 32 31 31 33 32 33 33 31 31 30 31 30 30 30 28 30 26 24 24 26 28 29 29 28 27 28 32 31 32 31 33 31 25 24 23 23 23 24 25 28 31 31 32 31 31 32 33 33 33 34 34 34 34